Racine, WI

1:03 PM CST on December 16, 2017 (GMT -0600)
Batten

Weather History for KRAC - March, 2013

Change the Weather History Date:

Friday, March 22, 2013

  Actual Average Record
Temperature  
Mean Temperature 27 °F -  
Max Temperature 36 °F 41 °F 73 °F (2012)
Min Temperature 19 °F 28 °F 11 °F (1965)
Degree Days  
Heating Degree Days 38    
Moisture  
Dew Point 14 °F    
Average Humidity 60    
Maximum Humidity 78    
Minimum Humidity 44    
Precipitation  
Precipitation 0.00 in - - ()
Sea Level Pressure  
Sea Level Pressure 30.07 in    
Wind  
Wind Speed 5 mph (WNW)    
Max Wind Speed 9 mph    
Max Gust Speed -    
Visibility 10 miles    
Events      
Averages and records for this station are not official NWS values.
T = Trace of Precipitation, MM = Missing Value Source: NWS Daily Summary

Daily Weather History Graph

Daily Weather History Graph

Search for Another Location

Airport or City:

Trip Planner

Search our weather history database for the weather conditions in past years. The results will help you decide how hot, cold, wet, or windy it might be!

Date:

Astronomy

Mar. 22, 2013 Rise Set
Actual Time 6:50 AM CDT 7:06 PM CDT
Civil Twilight 6:22 AM CDT 7:34 PM CDT
Nautical Twilight 5:49 AM CDT 8:07 PM CDT
Astronomical Twilight 5:15 AM CDT 8:41 PM CDT
Moon 2:27 PM CDT (3/22) 3:56 AM CDT (3/22)
Length of Visible Light 13h 12m
Length of Day
12h 15m
Waxing Gibbous, 77% of the Moon is Illuminated
Mar 22
Waxing Gibbous
Mar 27
Full
Apr 2
Last Quarter
Apr 10
New
Apr 18
First Quarter

Hourly Weather History & Observations

Time (CDT) Temp. Windchill Dew Point Humidity Pressure Visibility Wind Dir Wind Speed Gust Speed Precip Events Conditions
12:53 AM 21.9 °F 14.5 °F 10.0 °F 60% 30.06 in 10.0 mi West 5.8 mph - N/A   Clear
1:53 AM 21.0 °F 13.4 °F 10.0 °F 63% 30.06 in 10.0 mi West 5.8 mph - N/A   Clear
2:53 AM 21.0 °F 13.4 °F 10.0 °F 63% 30.06 in 10.0 mi West 5.8 mph - N/A   Clear
3:53 AM 19.9 °F 11.1 °F 9.0 °F 62% 30.06 in 10.0 mi West 6.9 mph - N/A   Clear
4:53 AM 19.9 °F 10.1 °F 9.0 °F 62% 30.06 in 10.0 mi West 8.1 mph - N/A   Clear
5:53 AM 19.0 °F 11.1 °F 8.1 °F 62% 30.07 in 10.0 mi WNW 5.8 mph - N/A   Clear
7:53 AM 19.9 °F 9.3 °F 8.1 °F 60% 30.07 in 10.0 mi WNW 9.2 mph - N/A   Clear
8:53 AM 23.0 °F 17.0 °F 10.0 °F 58% 30.07 in 10.0 mi NW 4.6 mph - N/A   Clear
9:53 AM 26.1 °F 21.9 °F 12.0 °F 55% 30.08 in 10.0 mi NW 3.5 mph - N/A   Clear
10:53 AM 28.9 °F 23.9 °F 12.9 °F 51% 30.08 in 10.0 mi Variable 4.6 mph - N/A   Clear
11:53 AM 32.0 °F 28.7 °F 15.1 °F 50% 30.09 in 10.0 mi Variable 3.5 mph - N/A   Clear
12:53 PM 33.1 °F 26.1 °F 15.1 °F 48% 30.07 in 10.0 mi West 8.1 mph - N/A   Clear
1:53 PM 35.1 °F 28.6 °F 15.1 °F 44% 30.06 in 10.0 mi West 8.1 mph - N/A   Clear
2:53 PM 34.0 °F 28.0 °F 21.0 °F 59% 30.05 in 10.0 mi East 6.9 mph - N/A   Clear
3:53 PM 34.0 °F 28.0 °F 19.9 °F 56% 30.05 in 10.0 mi East 6.9 mph - N/A   Clear
4:53 PM 34.0 °F 28.8 °F 19.0 °F 54% 30.05 in 10.0 mi East 5.8 mph - N/A   Clear
5:53 PM 33.1 °F 27.7 °F 18.0 °F 54% 30.07 in 10.0 mi East 5.8 mph - N/A   Clear
6:53 PM 30.0 °F 24.1 °F 19.0 °F 64% 30.09 in 10.0 mi NE 5.8 mph - N/A   Clear
7:53 PM 30.0 °F - 18.0 °F 61% 30.09 in 10.0 mi Calm Calm - N/A   Clear
8:53 PM 30.0 °F - 18.0 °F 61% 30.09 in 10.0 mi Calm Calm - N/A   Clear
9:53 PM 27.0 °F 23.0 °F 18.0 °F 69% 30.10 in 10.0 mi West 3.5 mph - N/A   Clear
10:53 PM 24.1 °F - 17.1 °F 75% 30.12 in 10.0 mi Calm Calm - N/A   Clear
11:53 PM 23.0 °F - 17.1 °F 78% 30.11 in 10.0 mi Calm Calm - N/A   Clear